Orbital Elements at Epoch 2459200.5 (2020-Dec-17.0) TDB
Reference: JPL 10 (heliocentric ecliptic J2000)
Element | Value | Uncertainty (1-sigma) | Units |
e | .1733814224992815 | 4.7962e-08 | |
a | 2.43000679373311 | 1.3533e-08 | au |
q | 2.008688759152745 | 1.1168e-07 | au |
i | 2.371446749847395 | 5.7539e-06 | deg |
node | 124.1181619326922 | 0.00011407 | deg |
peri | 149.7527727880293 | 0.00011543 | deg |
M | 74.9683166464272 | 1.7531e-05 | deg |
tp | 2458912.372363329583 (2020-Mar-03.87236333) | 6.6809e-05 | TDB |
period | 1383.597149320456 3.79 | 1.1558e-05 3.164e-08 | d yr |
n | .2601913426728376 | 2.1735e-09 | deg/d |
Q | 2.851324828313475 | 1.5879e-08 | au |
|
| | Orbit Determination Parameters
Additional Information
|